M I D A S
Marine Information and Data Acquisition System
Tripno 1670 of the Zeeleeuw from 2009-03-31 07:21:19 to 2009-04-01 14:27:32
Back to CruiseResearch ActivitiesStationsMapUnderway DataData graphs

EquipmentUnitsComments
TimeDGPSUTC
LatitudeDGPSDM.mWGS84
LongitudeDGPSDM.mWGS84
SpeedMeteo Stationm/sRelative wind speed
DirectionMeteo StationdegRelative wind direction
TemperatureMeteo Stationdeg CelciusAir temperature
PressureMeteo StationPaAtmospheric pressure
HumidityMeteo Station%Relative humidity
Missing or incorrect values are displayed as -999
Metereological data collected by the RV Zeeleeuw from 2009-03-31 07:09:06 to 2009-04-01 14:30:45
                                                                                    Next 1000 lines
Time Latitude Longitude Speed Direction Temperature Pressure Humidity
2009-03-31 07:09:16 51°13.662 2°55.958 2.5 6 5.7 102430 71
2009-03-31 07:09:21 51°13.662 2°55.956 2.4 7 5.7 102430 71
2009-03-31 07:09:26 51°13.663 2°55.953 2.3 8 5.7 102430 71
2009-03-31 07:09:31 51°13.664 2°55.95 2.8 12 5.7 102440 71
2009-03-31 07:09:36 51°13.665 2°55.946 2.7 10 5.7 102440 71
2009-03-31 07:09:42 51°13.667 2°55.942 2.5 12 5.7 102440 71
2009-03-31 07:09:48 51°13.668 2°55.937 2.6 13 5.7 102440 71
2009-03-31 07:09:53 51°13.67 2°55.933 2.4 10 5.7 102430 71
2009-03-31 07:09:59 51°13.671 2°55.928 1.9 15 5.7 102430 71
2009-03-31 07:10:05 51°13.673 2°55.923 1.8 22 5.7 102430 71
2009-03-31 07:10:10 51°13.674 2°55.918 1.6 25 5.7 102430 71
2009-03-31 07:10:15 51°13.676 2°55.913 1.5 26 5.7 102440 71
2009-03-31 07:10:20 51°13.677 2°55.908 1.3 32 5.7 102440 71
2009-03-31 07:10:24 51°13.679 2°55.904 1.7 30 5.7 102440 71
2009-03-31 07:10:30 51°13.681 2°55.897 1.6 36 5.7 102440 71
2009-03-31 07:10:35 51°13.682 2°55.892 1.6 41 5.7 102440 71
2009-03-31 07:10:40 51°13.683 2°55.886 1.5 39 5.7 102440 71
2009-03-31 07:10:44 51°13.684 2°55.881 1.7 33 5.7 102440 71
2009-03-31 07:10:50 51°13.686 2°55.874 1.4 32 5.7 102440 71
2009-03-31 07:10:55 51°13.687 2°55.868 1.5 28 5.7 102440 71
2009-03-31 07:11:00 51°13.688 2°55.862 1.7 44 5.7 102440 71
2009-03-31 07:11:04 51°13.689 2°55.857 2.1 42 5.7 102440 71
2009-03-31 07:11:10 51°13.691 2°55.849 2.2 73 5.7 102440 71
2009-03-31 07:11:15 51°13.691 2°55.843 2.1 25 5.7 102430 71
2009-03-31 07:11:20 51°13.692 2°55.836 2.1 79 5.7 102430 71
2009-03-31 07:11:24 51°13.693 2°55.831 1.9 42 5.8 102440 71
2009-03-31 07:11:30 51°13.694 2°55.823 1.6 39 5.8 102440 71
2009-03-31 07:11:35 51°13.695 2°55.816 1.6 39 5.8 102430 71
2009-03-31 07:11:40 51°13.695 2°55.81 1.7 44 5.8 102430 71
2009-03-31 07:11:45 51°13.696 2°55.803 2.5 25 5.8 102440 71
2009-03-31 07:11:50 51°13.696 2°55.797 2.2 40 5.8 102440 71
2009-03-31 07:11:55 51°13.697 2°55.791 2.6 40 5.8 102430 71
2009-03-31 07:12:00 51°13.697 2°55.785 2.7 33 5.8 102430 71
2009-03-31 07:12:05 51°13.697 2°55.78 2.2 36 5.8 102430 71
2009-03-31 07:12:10 51°13.698 2°55.774 2.1 35 5.8 102430 71
2009-03-31 07:12:14 51°13.698 2°55.77 2.1 33 5.8 102440 71
2009-03-31 07:12:20 51°13.698 2°55.765 2.7 40 5.8 102440 71
2009-03-31 07:12:24 51°13.698 2°55.762 2.1 32 5.8 102430 71
2009-03-31 07:12:29 51°13.699 2°55.759 2.1 35 5.8 102430 71
2009-03-31 07:12:34 51°13.699 2°55.758 1.8 32 5.8 102440 71
2009-03-31 07:12:39 51°13.7 2°55.757 2 34 5.8 102440 71
2009-03-31 07:12:44 51°13.7 2°55.756 2.7 34 5.9 102440 71
2009-03-31 07:12:49 51°13.701 2°55.755 2.2 34 5.9 102440 71
2009-03-31 07:12:53 51°13.702 2°55.755 1.9 36 5.9 102430 71
2009-03-31 07:12:58 51°13.702 2°55.755 2.2 33 5.9 102430 71
2009-03-31 07:13:03 51°13.703 2°55.755 2.1 34 5.9 102430 70
2009-03-31 07:13:08 51°13.704 2°55.755 2.3 36 5.9 102430 70
2009-03-31 07:13:13 51°13.705 2°55.755 1.9 39 5.9 102430 70
2009-03-31 07:13:18 51°13.707 2°55.756 1.8 41 5.9 102430 70
2009-03-31 07:13:23 51°13.708 2°55.756 2.2 43 5.9 102440 70
2009-03-31 07:13:28 51°13.71 2°55.756 2.1 43 5.9 102440 70
2009-03-31 07:13:33 51°13.711 2°55.756 2.1 26 5.9 102430 70
2009-03-31 07:13:38 51°13.711 2°55.756 2 77 5.9 102430 70
2009-03-31 07:13:42 51°13.712 2°55.755 1.3 18 5.9 102430 70
2009-03-31 07:13:47 51°13.712 2°55.755 1.6 81 5.9 102430 70
2009-03-31 07:13:52 51°13.711 2°55.754 1.6 26 5.9 102430 70
2009-03-31 07:13:57 51°13.711 2°55.753 1.9 78 5.9 102430 70
2009-03-31 07:14:02 51°13.711 2°55.752 2.2 26 5.9 102430 70
2009-03-31 07:14:07 51°13.711 2°55.751 2.3 80 5.9 102430 70
2009-03-31 07:14:12 51°13.71 2°55.75 1.6 37 5.9 102440 70
2009-03-31 07:14:16 51°13.71 2°55.749 2.1 81 5.9 102440 70
2009-03-31 07:14:21 51°13.71 2°55.748 1.8 27 5.9 102430 70
2009-03-31 07:14:26 51°13.711 2°55.747 1.2 78 5.9 102430 70
2009-03-31 07:14:31 51°13.713 2°55.746 0.8 19 5.9 102440 70
2009-03-31 07:14:36 51°13.716 2°55.744 0.7 81 5.9 102440 70
2009-03-31 07:14:41 51°13.719 2°55.742 1.5 259 5.9 102430 70
2009-03-31 07:14:46 51°13.723 2°55.738 1.6 283 5.9 102430 70
2009-03-31 07:14:51 51°13.727 2°55.734 2.2 250 5.9 102430 70
2009-03-31 07:14:56 51°13.732 2°55.728 1.3 287 5.9 102430 70
2009-03-31 07:15:01 51°13.737 2°55.723 1.2 20 6 102430 70
2009-03-31 07:15:06 51°13.742 2°55.716 1.5 278 6 102430 70
2009-03-31 07:15:11 51°13.748 2°55.71 1.1 18 6 102430 70
2009-03-31 07:15:16 51°13.754 2°55.704 1 279 6 102430 70
2009-03-31 07:15:21 51°13.76 2°55.697 0.9 22 6 102430 70
2009-03-31 07:15:26 51°13.767 2°55.691 1 279 6 102430 70
2009-03-31 07:15:31 51°13.773 2°55.685 0.9 26 6 102440 70
2009-03-31 07:15:36 51°13.779 2°55.679 0.9 279 6 102440 70
2009-03-31 07:15:41 51°13.786 2°55.673 0.5 26 6 102430 70
2009-03-31 07:15:46 51°13.792 2°55.667 0.4 279 6 102430 70
2009-03-31 07:15:51 51°13.798 2°55.662 0.3 24 6.1 102430 70
2009-03-31 07:15:56 51°13.805 2°55.657 0.2 282 6.1 102430 70
2009-03-31 07:16:01 51°13.811 2°55.652 0.2 23 6.1 102430 70
2009-03-31 07:16:06 51°13.817 2°55.648 0.2 283 6.1 102430 70
2009-03-31 07:16:11 51°13.823 2°55.643 0.1 25 6.1 102430 70
2009-03-31 07:16:16 51°13.829 2°55.638 0.3 287 6.1 102430 70
2009-03-31 07:16:21 51°13.836 2°55.634 0.8 21 6.1 102430 70
2009-03-31 07:16:26 51°13.842 2°55.63 0.7 283 6.1 102430 70
2009-03-31 07:16:31 51°13.848 2°55.626 0.6 25 6.2 102430 70
2009-03-31 07:16:36 51°13.854 2°55.621 0.5 282 6.2 102430 70
2009-03-31 07:16:41 51°13.86 2°55.617 1.3 320 6.2 102430 70
2009-03-31 07:16:46 51°13.866 2°55.613 0.9 279 6.2 102430 70
2009-03-31 07:16:51 51°13.873 2°55.609 0.7 316 6.2 102430 70
2009-03-31 07:16:56 51°13.879 2°55.604 0.8 284 6.2 102430 70
2009-03-31 07:17:01 51°13.886 2°55.599 0.4 315 6.2 102430 70
2009-03-31 07:17:06 51°13.893 2°55.594 0.2 282 6.2 102430 70
2009-03-31 07:17:11 51°13.9 2°55.589 0.1 335 6.3 102430 70
2009-03-31 07:17:16 51°13.907 2°55.584 -999 283 6.3 102430 70
2009-03-31 07:17:21 51°13.915 2°55.578 0.3 325 6.3 102430 70
2009-03-31 07:17:26 51°13.923 2°55.573 0.8 280 6.3 102430 70
2009-03-31 07:17:31 51°13.932 2°55.567 1.7 320 6.3 102430 70
2009-03-31 07:17:36 51°13.941 2°55.56 1.8 279 6.3 102430 70
2009-03-31 07:17:41 51°13.95 2°55.554 2.2 330 6.4 102430 70
2009-03-31 07:17:46 51°13.96 2°55.547 2.4 282 6.4 102430 70
2009-03-31 07:17:51 51°13.969 2°55.54 2.3 327 6.4 102430 70
2009-03-31 07:17:56 51°13.98 2°55.533 2.4 285 6.4 102430 70
2009-03-31 07:18:01 51°13.99 2°55.526 3.1 323 6.4 102430 70
2009-03-31 07:18:06 51°14.001 2°55.518 3.4 282 6.4 102430 70
2009-03-31 07:18:11 51°14.012 2°55.51 3.3 317 6.4 102430 70
2009-03-31 07:18:16 51°14.023 2°55.502 2.6 281 6.4 102430 70
2009-03-31 07:18:21 51°14.034 2°55.494 2 331 6.4 102430 69
2009-03-31 07:18:26 51°14.045 2°55.485 2.4 285 6.4 102430 69
2009-03-31 07:18:31 51°14.056 2°55.477 2.4 326 6.4 102430 69
2009-03-31 07:18:36 51°14.068 2°55.468 2.3 281 6.4 102430 69
2009-03-31 07:18:41 51°14.079 2°55.459 2.6 323 6.4 102430 69
2009-03-31 07:18:46 51°14.091 2°55.45 2.6 281 6.4 102430 69
2009-03-31 07:18:51 51°14.103 2°55.441 2.5 325 6.4 102430 68
2009-03-31 07:18:56 51°14.114 2°55.431 2.3 280 6.4 102430 68
2009-03-31 07:19:01 51°14.125 2°55.421 2.9 327 6.5 102430 68
2009-03-31 07:19:06 51°14.137 2°55.411 2.9 281 6.5 102430 68
2009-03-31 07:19:11 51°14.148 2°55.401 2.5 328 6.5 102430 68
2009-03-31 07:19:16 51°14.159 2°55.39 3 284 6.5 102430 68
2009-03-31 07:19:21 51°14.17 2°55.379 4 322 6.5 102430 69
2009-03-31 07:19:26 51°14.181 2°55.367 3.3 281 6.5 102430 69
2009-03-31 07:19:31 51°14.192 2°55.355 3.3 319 6.5 102430 68
2009-03-31 07:19:36 51°14.203 2°55.343 3.1 278 6.5 102430 68
2009-03-31 07:19:41 51°14.213 2°55.33 2.7 318 6.5 102430 68
2009-03-31 07:19:46 51°14.224 2°55.317 3.2 281 6.5 102430 68
2009-03-31 07:19:51 51°14.234 2°55.302 4 317 6.5 102430 69
2009-03-31 07:19:56 51°14.244 2°55.288 3.7 281 6.5 102430 69
2009-03-31 07:20:01 51°14.254 2°55.273 4 324 6.5 102430 68
2009-03-31 07:20:06 51°14.263 2°55.257 4 286 6.5 102430 68
2009-03-31 07:20:11 51°14.273 2°55.242 4.3 322 6.6 102430 68
2009-03-31 07:20:16 51°14.283 2°55.226 3.4 286 6.6 102430 68
2009-03-31 07:20:21 51°14.292 2°55.209 3.6 319 6.6 102430 68
2009-03-31 07:20:26 51°14.302 2°55.193 3.3 281 6.6 102430 68
2009-03-31 07:20:31 51°14.312 2°55.177 5.3 322 6.6 102430 68
2009-03-31 07:20:36 51°14.321 2°55.16 4.3 281 6.6 102430 68
2009-03-31 07:20:41 51°14.331 2°55.143 5.1 324 6.6 102430 68
2009-03-31 07:20:46 51°14.34 2°55.126 5.4 285 6.6 102430 68
2009-03-31 07:20:51 51°14.35 2°55.108 4.6 19 6.6 102430 68
2009-03-31 07:20:56 51°14.359 2°55.09 4.4 281 6.6 102430 68
2009-03-31 07:21:01 51°14.369 2°55.073 3.9 24 6.6 102430 68
2009-03-31 07:21:06 51°14.379 2°55.055 4 285 6.6 102430 68
2009-03-31 07:21:11 51°14.388 2°55.037 3.8 318 6.7 102430 68
2009-03-31 07:21:16 51°14.398 2°55.018 4 281 6.7 102430 68
2009-03-31 07:21:21 51°14.407 2°55 4.5 20 6.7 102430 68
2009-03-31 07:21:26 51°14.417 2°54.981 5 282 6.7 102430 68
2009-03-31 07:21:31 51°14.426 2°54.961 4.6 318 6.7 102430 67
2009-03-31 07:21:36 51°14.435 2°54.941 5.5 280 6.7 102430 67
2009-03-31 07:21:41 51°14.443 2°54.921 4.9 25 6.7 102430 67
2009-03-31 07:21:46 51°14.452 2°54.9 4.7 280 6.7 102430 67
2009-03-31 07:21:51 51°14.46 2°54.879 6.1 19 6.7 102430 67
2009-03-31 07:21:56 51°14.469 2°54.858 5.1 286 6.7 102430 67
2009-03-31 07:22:01 51°14.478 2°54.837 5.3 315 6.7 102420 67
2009-03-31 07:22:06 51°14.486 2°54.816 5.2 286 6.7 102420 67
2009-03-31 07:22:11 51°14.495 2°54.794 6.1 316 6.7 102420 66
2009-03-31 07:22:16 51°14.503 2°54.772 6.3 285 6.7 102420 66
2009-03-31 07:22:21 51°14.512 2°54.75 6.6 319 6.8 102430 66
2009-03-31 07:22:26 51°14.52 2°54.727 6.6 283 6.8 102430 66
2009-03-31 07:22:31 51°14.528 2°54.704 6.8 316 6.8 102420 66
2009-03-31 07:22:36 51°14.536 2°54.681 6.9 282 6.8 102420 66
2009-03-31 07:22:41 51°14.545 2°54.658 7.1 315 6.8 102420 67
2009-03-31 07:22:46 51°14.553 2°54.634 6.9 286 6.8 102420 67
2009-03-31 07:22:51 51°14.562 2°54.611 6 33 6.8 102420 67
2009-03-31 07:22:56 51°14.57 2°54.587 6.8 283 6.8 102420 67
2009-03-31 07:23:01 51°14.579 2°54.563 6.3 20 6.9 102420 66
2009-03-31 07:23:06 51°14.587 2°54.538 7.2 281 6.9 102420 66
2009-03-31 07:23:11 51°14.595 2°54.514 7 316 6.9 102420 66
2009-03-31 07:23:16 51°14.604 2°54.489 6.1 285 6.9 102420 66
2009-03-31 07:23:21 51°14.612 2°54.465 5.9 318 6.9 102420 66
2009-03-31 07:23:26 51°14.62 2°54.44 6.8 281 6.9 102420 66
2009-03-31 07:23:31 51°14.629 2°54.416 7.3 317 6.9 102420 65
2009-03-31 07:23:36 51°14.637 2°54.391 6.2 287 6.9 102420 65
2009-03-31 07:23:41 51°14.645 2°54.366 6.4 319 6.9 102420 65
2009-03-31 07:23:46 51°14.652 2°54.341 7.1 281 6.9 102420 65
2009-03-31 07:23:51 51°14.661 2°54.316 6 317 6.9 102420 65
2009-03-31 07:23:56 51°14.669 2°54.291 6.4 281 6.9 102420 65
2009-03-31 07:24:01 51°14.677 2°54.267 6.8 22 6.9 102420 65
2009-03-31 07:24:06 51°14.686 2°54.242 5.8 282 6.9 102420 65
2009-03-31 07:24:11 51°14.694 2°54.218 5.9 26 6.9 102420 66
2009-03-31 07:24:16 51°14.703 2°54.193 5.9 280 6.9 102420 66
2009-03-31 07:24:21 51°14.711 2°54.169 6 316 6.9 102420 66
2009-03-31 07:24:26 51°14.72 2°54.144 5.7 279 6.9 102420 66
2009-03-31 07:24:31 51°14.728 2°54.12 6.6 315 6.9 102420 66
2009-03-31 07:24:36 51°14.737 2°54.095 7 285 6.9 102420 66
2009-03-31 07:24:41 51°14.745 2°54.071 6.1 21 6.9 102420 66
2009-03-31 07:24:46 51°14.754 2°54.046 5.9 287 6.9 102420 66
2009-03-31 07:24:51 51°14.762 2°54.022 6.3 25 6.8 102420 66
2009-03-31 07:24:56 51°14.771 2°53.998 6.4 284 6.8 102420 66
2009-03-31 07:25:01 51°14.779 2°53.973 5.7 21 6.8 102420 66
2009-03-31 07:25:06 51°14.788 2°53.949 6.5 285 6.8 102420 66
2009-03-31 07:25:11 51°14.796 2°53.925 6.2 31 6.8 102420 65
2009-03-31 07:25:16 51°14.805 2°53.9 5.4 285 6.8 102420 65
2009-03-31 07:25:21 51°14.813 2°53.876 6.4 25 6.8 102420 65
2009-03-31 07:25:26 51°14.82 2°53.85 5.7 280 6.8 102420 65
2009-03-31 07:25:31 51°14.827 2°53.825 6.5 36 6.8 102420 65
2009-03-31 07:25:36 51°14.833 2°53.799 6.8 282 6.8 102420 65
2009-03-31 07:25:41 51°14.84 2°53.773 7.1 25 6.7 102420 65
2009-03-31 07:25:46 51°14.845 2°53.746 6.4 283 6.7 102420 65
2009-03-31 07:25:51 51°14.85 2°53.719 7.1 316 6.7 102420 66
2009-03-31 07:25:56 51°14.855 2°53.692 6.6 285 6.7 102420 66
2009-03-31 07:26:01 51°14.859 2°53.665 7.6 20 6.8 102420 66
2009-03-31 07:26:06 51°14.864 2°53.637 7.5 279 6.8 102420 66
2009-03-31 07:26:11 51°14.868 2°53.61 7.3 21 6.8 102420 66
2009-03-31 07:26:16 51°14.87 2°53.582 7 286 6.8 102420 66
2009-03-31 07:26:20 51°14.872 2°53.56 8.1 26 6.8 102420 66
2009-03-31 07:26:25 51°14.874 2°53.532 8.1 284 6.8 102420 66
2009-03-31 07:26:31 51°14.876 2°53.498 7.7 24 6.8 102420 66
2009-03-31 07:26:36 51°14.877 2°53.47 8.2 282 6.8 102420 66
2009-03-31 07:26:41 51°14.878 2°53.442 7.3 315 6.7 102420 66
2009-03-31 07:26:46 51°14.879 2°53.414 8.1 281 6.7 102420 66
2009-03-31 07:26:51 51°14.88 2°53.385 8 317 6.7 102420 65
2009-03-31 07:26:56 51°14.881 2°53.357 7.1 278 6.7 102420 65
2009-03-31 07:27:01 51°14.881 2°53.329 8.3 315 6.7 102410 66
2009-03-31 07:27:06 51°14.881 2°53.3 8 279 6.7 102410 66
2009-03-31 07:27:11 51°14.882 2°53.272 7.7 316 6.7 102420 66
2009-03-31 07:27:16 51°14.882 2°53.244 7 281 6.7 102420 66
2009-03-31 07:27:21 51°14.883 2°53.215 8.2 317 6.7 102410 66
2009-03-31 07:27:26 51°14.883 2°53.187 8.1 281 6.7 102410 66
2009-03-31 07:27:31 51°14.884 2°53.159 8.3 315 6.7 102420 66
2009-03-31 07:27:36 51°14.884 2°53.13 7.6 286 6.7 102420 66
2009-03-31 07:27:41 51°14.885 2°53.102 8.4 316 6.7 102420 66
2009-03-31 07:27:46 51°14.885 2°53.074 8.5 285 6.7 102420 66
2009-03-31 07:27:51 51°14.886 2°53.046 7.4 315 6.7 102420 66
2009-03-31 07:27:56 51°14.886 2°53.017 7.6 282 6.7 102420 66
2009-03-31 07:28:01 51°14.887 2°52.989 7.9 316 6.7 102420 66
2009-03-31 07:28:06 51°14.888 2°52.96 7.1 281 6.7 102420 66
2009-03-31 07:28:11 51°14.888 2°52.932 7.2 22 6.7 102420 66
2009-03-31 07:28:16 51°14.889 2°52.903 7.2 286 6.7 102420 66
2009-03-31 07:28:21 51°14.89 2°52.875 8.2 315 6.7 102410 66
2009-03-31 07:28:26 51°14.89 2°52.846 8.2 280 6.7 102410 66
2009-03-31 07:28:31 51°14.891 2°52.818 8.2 24 6.7 102420 67
2009-03-31 07:28:36 51°14.891 2°52.789 7.3 281 6.7 102420 67
2009-03-31 07:28:41 51°14.892 2°52.761 7.3 23 6.7 102420 66
2009-03-31 07:28:46 51°14.892 2°52.732 7.3 286 6.7 102420 66
2009-03-31 07:28:51 51°14.893 2°52.704 8.1 25 6.7 102420 67
2009-03-31 07:28:56 51°14.894 2°52.675 7 280 6.7 102420 67
2009-03-31 07:29:01 51°14.895 2°52.647 7 20 6.7 102410 67
2009-03-31 07:29:06 51°14.895 2°52.618 7.9 282 6.7 102410 67
2009-03-31 07:29:11 51°14.896 2°52.59 8.4 316 6.7 102420 66
2009-03-31 07:29:16 51°14.897 2°52.561 8.4 283 6.7 102420 66
2009-03-31 07:29:21 51°14.898 2°52.533 7.5 315 6.7 102410 66
2009-03-31 07:29:26 51°14.898 2°52.504 6.9 281 6.7 102410 66
2009-03-31 07:29:31 51°14.899 2°52.476 7.1 22 6.7 102410 66
2009-03-31 07:29:36 51°14.9 2°52.447 7.4 285 6.7 102410 66
2009-03-31 07:29:41 51°14.901 2°52.419 7 18 6.7 102420 66
2009-03-31 07:29:45 51°14.902 2°52.396 7.2 281 6.7 102420 66
2009-03-31 07:29:51 51°14.903 2°52.361 8 31 6.7 102410 67
2009-03-31 07:29:56 51°14.904 2°52.333 8.1 285 6.7 102410 67
2009-03-31 07:30:01 51°14.904 2°52.304 7.2 27 6.7 102410 66
2009-03-31 07:30:06 51°14.905 2°52.275 7.2 284 6.7 102410 66
2009-03-31 07:30:11 51°14.906 2°52.247 8.5 37 6.7 102420 66
2009-03-31 07:30:16 51°14.907 2°52.218 7.6 281 6.7 102420 66
2009-03-31 07:30:21 51°14.907 2°52.189 7.3 316 6.7 102420 66
2009-03-31 07:30:26 51°14.908 2°52.16 7.3 284 6.7 102420 66
2009-03-31 07:30:31 51°14.908 2°52.131 7.5 316 6.6 102420 67
2009-03-31 07:30:36 51°14.909 2°52.103 8.1 281 6.6 102420 67
2009-03-31 07:30:41 51°14.909 2°52.074 8.1 315 6.6 102420 67
2009-03-31 07:30:46 51°14.909 2°52.046 8.3 281 6.6 102420 67
2009-03-31 07:30:51 51°14.909 2°52.017 7.3 24 6.7 102410 67
2009-03-31 07:30:56 51°14.909 2°51.988 8.6 283 6.7 102410 67
2009-03-31 07:31:01 51°14.91 2°51.959 7.3 26 6.7 102420 67
2009-03-31 07:31:06 51°14.91 2°51.931 8.4 281 6.7 102420 67
2009-03-31 07:31:11 51°14.911 2°51.902 7.5 18 6.7 102410 68
2009-03-31 07:31:16 51°14.912 2°51.873 8.8 283 6.7 102410 68
2009-03-31 07:31:21 51°14.913 2°51.845 7.6 21 6.7 102420 68
2009-03-31 07:31:25 51°14.913 2°51.822 7.5 281 6.7 102420 68
2009-03-31 07:31:31 51°14.914 2°51.787 8.6 21 6.7 102420 68
2009-03-31 07:31:36 51°14.915 2°51.758 8.4 280 6.7 102420 68
2009-03-31 07:31:41 51°14.916 2°51.73 7.8 27 6.7 102410 67
2009-03-31 07:31:46 51°14.916 2°51.701 8.6 283 6.7 102410 67
2009-03-31 07:31:51 51°14.917 2°51.672 8.2 20 6.7 102420 67
2009-03-31 07:31:56 51°14.917 2°51.644 8.6 281 6.7 102420 67
2009-03-31 07:32:01 51°14.918 2°51.615 7.6 23 6.7 102420 67
2009-03-31 07:32:06 51°14.919 2°51.587 7.3 280 6.7 102420 67
2009-03-31 07:32:11 51°14.919 2°51.558 7 316 6.6 102420 67
2009-03-31 07:32:16 51°14.92 2°51.53 7.3 280 6.6 102420 67
2009-03-31 07:32:21 51°14.921 2°51.501 8.4 315 6.6 102420 68
2009-03-31 07:32:26 51°14.921 2°51.472 7.1 285 6.6 102420 68
2009-03-31 07:32:31 51°14.922 2°51.444 7.8 317 6.6 102420 67
2009-03-31 07:32:36 51°14.923 2°51.415 7.8 286 6.6 102420 67
2009-03-31 07:32:41 51°14.924 2°51.387 6.8 317 6.6 102420 68
2009-03-31 07:32:46 51°14.924 2°51.358 6.8 287 6.6 102420 68
2009-03-31 07:32:51 51°14.925 2°51.33 8.5 315 6.6 102420 68
2009-03-31 07:32:56 51°14.926 2°51.301 7 287 6.6 102420 68
2009-03-31 07:33:01 51°14.926 2°51.273 7.8 317 6.6 102420 68
2009-03-31 07:33:06 51°14.927 2°51.244 8 280 6.6 102420 68
2009-03-31 07:33:11 51°14.927 2°51.216 8.2 316 6.6 102420 69
2009-03-31 07:33:16 51°14.928 2°51.187 6.9 280 6.6 102420 69
2009-03-31 07:33:21 51°14.929 2°51.158 7.7 317 6.6 102420 69
2009-03-31 07:33:26 51°14.929 2°51.13 8 279 6.6 102420 69
2009-03-31 07:33:31 51°14.93 2°51.101 7.7 317 6.6 102420 69
2009-03-31 07:33:36 51°14.93 2°51.072 6.6 282 6.6 102420 69
2009-03-31 07:33:41 51°14.931 2°51.044 7.6 317 6.6 102420 69
2009-03-31 07:33:46 51°14.932 2°51.015 7.3 281 6.6 102420 69
2009-03-31 07:33:51 51°14.932 2°50.986 8.4 22 6.6 102420 69
2009-03-31 07:33:56 51°14.933 2°50.958 7.5 -999 6.6 102420 69
2009-03-31 07:34:01 51°14.934 2°50.929 7.4 19 6.6 102420 70
2009-03-31 07:34:06 51°14.935 2°50.9 8.4 280 6.6 102420 70
2009-03-31 07:34:11 51°14.935 2°50.871 8.7 317 6.6 102420 70
2009-03-31 07:34:16 51°14.936 2°50.843 7.2 283 6.6 102420 70
2009-03-31 07:34:21 51°14.937 2°50.814 8.3 317 6.6 102420 69
2009-03-31 07:34:26 51°14.937 2°50.785 7.2 280 6.6 102420 69
2009-03-31 07:34:31 51°14.937 2°50.756 8.8 317 6.6 102420 69
2009-03-31 07:34:36 51°14.936 2°50.728 7.8 281 6.6 102420 69
2009-03-31 07:34:41 51°14.935 2°50.699 9.1 316 6.6 102420 69
2009-03-31 07:34:46 51°14.933 2°50.67 7.8 286 6.6 102420 69
2009-03-31 07:34:51 51°14.932 2°50.642 8.3 319 6.6 102420 70
2009-03-31 07:34:56 51°14.93 2°50.613 7.5 -999 6.6 102420 70
2009-03-31 07:35:01 51°14.928 2°50.585 9.1 317 6.6 102420 70
2009-03-31 07:35:06 51°14.926 2°50.556 8 282 6.6 102420 70
2009-03-31 07:35:11 51°14.924 2°50.528 7.9 316 6.6 102420 70
2009-03-31 07:35:16 51°14.921 2°50.499 9 282 6.6 102420 70
2009-03-31 07:35:21 51°14.919 2°50.47 8.6 318 6.5 102420 70
2009-03-31 07:35:26 51°14.916 2°50.442 8.8 285 6.5 102420 70
2009-03-31 07:35:31 51°14.914 2°50.413 7.5 317 6.5 102410 70
2009-03-31 07:35:36 51°14.912 2°50.384 8.6 283 6.5 102410 70
2009-03-31 07:35:41 51°14.91 2°50.355 8.6 317 6.5 102420 70
2009-03-31 07:35:46 51°14.907 2°50.327 7.6 286 6.5 102420 70
2009-03-31 07:35:51 51°14.905 2°50.298 8.7 317 6.5 102420 71
2009-03-31 07:35:56 51°14.903 2°50.269 9 -999 6.5 102420 71
2009-03-31 07:36:01 51°14.901 2°50.241 9.2 317 6.5 102420 71
2009-03-31 07:36:06 51°14.899 2°50.212 7.7 279 6.5 102420 71
2009-03-31 07:36:11 51°14.897 2°50.183 7.4 317 6.5 102420 71
2009-03-31 07:36:16 51°14.894 2°50.154 8.9 284 6.5 102420 71
2009-03-31 07:36:21 51°14.892 2°50.125 8 317 6.5 102420 71
2009-03-31 07:36:26 51°14.89 2°50.097 7.8 281 6.5 102420 71
2009-03-31 07:36:31 51°14.888 2°50.068 9.2 317 6.5 102420 72
2009-03-31 07:36:36 51°14.885 2°50.039 9.1 285 6.5 102420 72
2009-03-31 07:36:41 51°14.883 2°50.011 9.1 26 6.5 102410 72
2009-03-31 07:36:46 51°14.88 2°49.982 8.9 283 6.5 102410 72
2009-03-31 07:36:51 51°14.878 2°49.953 9.2 315 6.5 102410 72
2009-03-31 07:36:56 51°14.876 2°49.925 9.2 -999 6.5 102410 72
2009-03-31 07:37:01 51°14.874 2°49.896 8.9 18 6.5 102420 72
2009-03-31 07:37:06 51°14.872 2°49.867 7.7 287 6.5 102420 72
2009-03-31 07:37:11 51°14.87 2°49.838 8.9 315 6.5 102410 72
2009-03-31 07:37:16 51°14.868 2°49.81 7.9 284 6.5 102410 72
2009-03-31 07:37:21 51°14.866 2°49.781 8 23 6.4 102410 72
2009-03-31 07:37:26 51°14.865 2°49.752 9.3 286 6.4 102410 72
2009-03-31 07:37:31 51°14.862 2°49.724 7.6 316 6.4 102420 72
2009-03-31 07:37:36 51°14.861 2°49.695 8.7 286 6.4 102420 72
2009-03-31 07:37:41 51°14.859 2°49.666 9.1 316 6.4 102410 72
2009-03-31 07:37:46 51°14.857 2°49.637 8.8 281 6.4 102410 72
2009-03-31 07:37:51 51°14.855 2°49.609 7.6 317 6.4 102410 72
2009-03-31 07:37:56 51°14.853 2°49.58 9.2 -999 6.4 102410 72
2009-03-31 07:38:01 51°14.851 2°49.551 9 317 6.4 102410 72
2009-03-31 07:38:06 51°14.849 2°49.523 7.3 287 6.4 102410 72
2009-03-31 07:38:11 51°14.847 2°49.494 8.8 316 6.4 102410 72
2009-03-31 07:38:16 51°14.845 2°49.465 7.6 280 6.4 102410 72
2009-03-31 07:38:21 51°14.843 2°49.437 8.9 318 6.4 102410 73
2009-03-31 07:38:26 51°14.841 2°49.408 8.5 283 6.4 102410 73
2009-03-31 07:38:31 51°14.839 2°49.379 7.4 317 6.4 102420 73
2009-03-31 07:38:36 51°14.837 2°49.351 8.4 280 6.4 102420 73
2009-03-31 07:38:41 51°14.835 2°49.322 7.6 316 6.4 102420 73
2009-03-31 07:38:46 51°14.833 2°49.293 8.5 280 6.4 102420 73
2009-03-31 07:38:51 51°14.831 2°49.265 8.6 317 6.4 102410 73
2009-03-31 07:38:56 51°14.829 2°49.236 7.6 -999 6.4 102410 73
2009-03-31 07:39:01 51°14.827 2°49.207 7.8 318 6.4 102410 74
2009-03-31 07:39:06 51°14.825 2°49.179 8.5 285 6.4 102410 74
2009-03-31 07:39:11 51°14.823 2°49.15 9.2 317 6.4 102420 74
2009-03-31 07:39:16 51°14.82 2°49.122 7.5 281 6.4 102420 74
2009-03-31 07:39:21 51°14.817 2°49.094 8.9 316 6.4 102420 74
2009-03-31 07:39:26 51°14.813 2°49.066 9.1 281 6.4 102420 74
2009-03-31 07:39:31 51°14.81 2°49.038 8.9 315 6.4 102420 74
2009-03-31 07:39:36 51°14.806 2°49.01 8.7 282 6.4 102420 74
2009-03-31 07:39:41 51°14.802 2°48.982 7.7 317 6.4 102410 73
2009-03-31 07:39:46 51°14.798 2°48.954 7.8 281 6.4 102410 73
2009-03-31 07:39:51 51°14.794 2°48.926 7.8 316 6.4 102420 73
2009-03-31 07:39:56 51°14.79 2°48.898 9.2 -999 6.4 102420 73
2009-03-31 07:40:01 51°14.786 2°48.87 7.6 317 6.4 102410 74
2009-03-31 07:40:06 51°14.782 2°48.842 8 279 6.4 102410 74
2009-03-31 07:40:11 51°14.778 2°48.815 8.1 317 6.4 102410 74
2009-03-31 07:40:16 51°14.774 2°48.787 9.3 280 6.4 102410 74
2009-03-31 07:40:21 51°14.77 2°48.759 8.1 318 6.4 102410 74
2009-03-31 07:40:26 51°14.766 2°48.731 9.3 282 6.4 102410 74
2009-03-31 07:40:31 51°14.762 2°48.703 7.7 317 6.4 102410 73
2009-03-31 07:40:36 51°14.758 2°48.675 9.3 283 6.4 102410 73
2009-03-31 07:40:41 51°14.754 2°48.647 9.3 316 6.4 102410 73
2009-03-31 07:40:46 51°14.75 2°48.619 8.1 286 6.4 102410 73
2009-03-31 07:40:51 51°14.746 2°48.591 9 317 6.4 102420 73
2009-03-31 07:40:56 51°14.742 2°48.563 7.8 -999 6.4 102420 73
2009-03-31 07:41:01 51°14.738 2°48.536 9 316 6.4 102420 72
2009-03-31 07:41:06 51°14.734 2°48.508 9 282 6.4 102420 72
2009-03-31 07:41:11 51°14.73 2°48.48 7.8 317 6.4 102410 72
2009-03-31 07:41:16 51°14.726 2°48.452 7.7 285 6.4 102410 72
2009-03-31 07:41:21 51°14.722 2°48.424 8.1 316 6.4 102420 72
2009-03-31 07:41:25 51°14.719 2°48.402 9.2 280 6.4 102420 72
2009-03-31 07:41:31 51°14.714 2°48.368 9.3 316 6.4 102410 72
2009-03-31 07:41:36 51°14.71 2°48.34 9.4 280 6.4 102410 72
2009-03-31 07:41:41 51°14.706 2°48.312 8.7 318 6.4 102420 72
2009-03-31 07:41:46 51°14.702 2°48.285 7.2 279 6.4 102420 72
2009-03-31 07:41:51 51°14.698 2°48.257 7.8 318 6.5 102420 72
2009-03-31 07:41:56 51°14.694 2°48.228 7.9 -999 6.5 102420 72
2009-03-31 07:42:01 51°14.691 2°48.201 7.4 316 6.4 102420 72
2009-03-31 07:42:06 51°14.686 2°48.173 7.6 280 6.4 102420 72
2009-03-31 07:42:11 51°14.682 2°48.144 7.5 317 6.5 102420 73
2009-03-31 07:42:16 51°14.679 2°48.117 8.8 279 6.5 102420 73
2009-03-31 07:42:21 51°14.675 2°48.089 7.7 317 6.5 102410 72
2009-03-31 07:42:26 51°14.671 2°48.06 7.3 281 6.5 102410 72
2009-03-31 07:42:31 51°14.667 2°48.032 7.8 318 6.5 102410 72
2009-03-31 07:42:36 51°14.663 2°48.004 9.4 282 6.5 102410 72
2009-03-31 07:42:41 51°14.659 2°47.976 9.2 316 6.5 102410 72
2009-03-31 07:42:46 51°14.655 2°47.948 7.9 282 6.5 102410 72
2009-03-31 07:42:51 51°14.651 2°47.92 8.8 317 6.5 102420 73
2009-03-31 07:42:56 51°14.648 2°47.891 8.7 -999 6.5 102420 73
2009-03-31 07:43:01 51°14.644 2°47.863 8.4 318 6.5 102420 72
2009-03-31 07:43:06 51°14.64 2°47.835 8.9 286 6.5 102420 72
2009-03-31 07:43:11 51°14.636 2°47.807 9 317 6.5 102410 72
2009-03-31 07:43:16 51°14.632 2°47.779 7.6 280 6.5 102410 72
2009-03-31 07:43:21 51°14.628 2°47.751 8.8 318 6.5 102420 72
2009-03-31 07:43:26 51°14.624 2°47.723 8.9 283 6.5 102420 72
2009-03-31 07:43:31 51°14.621 2°47.695 7.8 319 6.5 102420 72
2009-03-31 07:43:36 51°14.617 2°47.667 9 279 6.5 102420 72
2009-03-31 07:43:41 51°14.613 2°47.639 7.4 317 6.5 102420 73
2009-03-31 07:43:46 51°14.609 2°47.61 7.5 286 6.5 102420 73
2009-03-31 07:43:51 51°14.606 2°47.582 7.3 317 6.5 102420 73
2009-03-31 07:43:56 51°14.602 2°47.554 7.2 -999 6.5 102420 73
2009-03-31 07:44:01 51°14.598 2°47.526 7.4 319 6.5 102410 73
2009-03-31 07:44:06 51°14.594 2°47.498 8.9 281 6.5 102410 73
2009-03-31 07:44:11 51°14.59 2°47.47 7.6 317 6.6 102420 72
2009-03-31 07:44:16 51°14.586 2°47.442 9.1 281 6.6 102420 72
2009-03-31 07:44:21 51°14.583 2°47.413 9.1 318 6.6 102420 73
2009-03-31 07:44:26 51°14.579 2°47.385 7.4 282 6.6 102420 73
2009-03-31 07:44:31 51°14.575 2°47.357 7.7 317 6.5 102420 73
2009-03-31 07:44:36 51°14.571 2°47.329 8.8 287 6.5 102420 73
2009-03-31 07:44:41 51°14.567 2°47.3 9.2 317 6.6 102420 73
2009-03-31 07:44:46 51°14.564 2°47.272 7.7 280 6.6 102420 73
2009-03-31 07:44:51 51°14.56 2°47.244 9.1 317 6.6 102420 73
2009-03-31 07:44:56 51°14.556 2°47.216 9.3 -999 6.6 102420 73
2009-03-31 07:45:01 51°14.552 2°47.187 7.6 319 6.6 102420 73
2009-03-31 07:45:06 51°14.548 2°47.159 8.9 281 6.6 102420 73
2009-03-31 07:45:11 51°14.545 2°47.131 8.6 317 6.6 102420 73
2009-03-31 07:45:16 51°14.541 2°47.102 8.6 286 6.6 102420 73
2009-03-31 07:45:21 51°14.538 2°47.075 8.4 319 6.6 102420 73
2009-03-31 07:45:26 51°14.533 2°47.046 8.6 280 6.6 102420 73
2009-03-31 07:45:31 51°14.53 2°47.018 8.7 318 6.6 102420 72
2009-03-31 07:45:36 51°14.526 2°46.989 7.3 280 6.6 102420 72
2009-03-31 07:45:41 51°14.522 2°46.961 9.4 318 6.6 102420 72
2009-03-31 07:45:46 51°14.518 2°46.933 9.2 285 6.6 102420 72
2009-03-31 07:45:51 51°14.515 2°46.904 9 319 6.6 102420 73
2009-03-31 07:45:56 51°14.511 2°46.876 9.2 -999 6.6 102420 73
2009-03-31 07:46:01 51°14.507 2°46.848 7.7 317 6.6 102420 73
2009-03-31 07:46:06 51°14.503 2°46.82 8 283 6.6 102420 73
2009-03-31 07:46:11 51°14.499 2°46.791 7.7 318 6.6 102420 72
2009-03-31 07:46:16 51°14.495 2°46.764 7.8 280 6.6 102420 72
2009-03-31 07:46:21 51°14.49 2°46.736 8.9 319 6.6 102420 72
2009-03-31 07:46:26 51°14.485 2°46.708 7.7 280 6.6 102420 72
2009-03-31 07:46:31 51°14.481 2°46.68 9.2 319 6.6 102420 72
2009-03-31 07:46:36 51°14.476 2°46.652 9.6 282 6.6 102420 72
2009-03-31 07:46:41 51°14.471 2°46.624 9.2 319 6.6 102420 72
2009-03-31 07:46:46 51°14.466 2°46.596 9.1 282 6.6 102420 72
2009-03-31 07:46:51 51°14.462 2°46.569 9.3 320 6.6 102420 72
2009-03-31 07:46:56 51°14.457 2°46.541 7.9 -999 6.6 102420 72
2009-03-31 07:47:01 51°14.452 2°46.513 7.8 320 6.7 102420 73
2009-03-31 07:47:06 51°14.448 2°46.485 7.8 286 6.7 102420 73
2009-03-31 07:47:11 51°14.443 2°46.457 8.9 320 6.7 102420 73
2009-03-31 07:47:16 51°14.438 2°46.43 8.9 286 6.7 102420 73
2009-03-31 07:47:21 51°14.434 2°46.402 7.6 320 6.7 102420 73
2009-03-31 07:47:26 51°14.429 2°46.374 8.6 280 6.7 102420 73
2009-03-31 07:47:31 51°14.424 2°46.346 7.7 319 6.7 102420 73
2009-03-31 07:47:36 51°14.419 2°46.319 8.7 281 6.7 102420 73
2009-03-31 07:47:41 51°14.414 2°46.291 8.7 319 6.7 102420 73
2009-03-31 07:47:46 51°14.409 2°46.263 7.5 281 6.7 102420 73
2009-03-31 07:47:51 51°14.404 2°46.235 8.6 321 6.7 102420 73
2009-03-31 07:47:56 51°14.4 2°46.208 7.5 -999 6.7 102420 73
2009-03-31 07:48:01 51°14.395 2°46.18 8.8 321 6.7 102420 73
2009-03-31 07:48:05 51°14.39 2°46.158 9 286 6.7 102420 73
2009-03-31 07:48:11 51°14.383 2°46.126 8.8 321 6.7 102430 73
2009-03-31 07:48:16 51°14.377 2°46.099 7.6 285 6.7 102430 73
2009-03-31 07:48:21 51°14.371 2°46.072 9 321 6.7 102420 73
2009-03-31 07:48:26 51°14.365 2°46.045 9.1 285 6.7 102420 73
2009-03-31 07:48:31 51°14.358 2°46.018 9.1 323 6.7 102430 74
2009-03-31 07:48:36 51°14.351 2°45.992 9.1 286 6.7 102430 74
2009-03-31 07:48:41 51°14.343 2°45.966 9.1 322 6.7 102420 74
2009-03-31 07:48:46 51°14.335 2°45.94 8.9 287 6.7 102420 74
2009-03-31 07:48:51 51°14.326 2°45.915 9.1 323 6.7 102420 74
2009-03-31 07:48:56 51°14.317 2°45.891 9 -999 6.7 102420 74
2009-03-31 07:49:01 51°14.308 2°45.866 8.7 322 6.8 102420 74
2009-03-31 07:49:06 51°14.298 2°45.843 8.7 284 6.8 102420 74
2009-03-31 07:49:11 51°14.288 2°45.82 8.5 323 6.8 102420 74
2009-03-31 07:49:16 51°14.278 2°45.796 8.4 281 6.8 102420 74
2009-03-31 07:49:21 51°14.268 2°45.774 9.4 324 6.8 102430 74
2009-03-31 07:49:26 51°14.257 2°45.751 9.7 279 6.8 102430 74
2009-03-31 07:49:31 51°14.247 2°45.728 9.9 323 6.8 102420 74
2009-03-31 07:49:36 51°14.236 2°45.706 8.6 280 6.8 102420 74
2009-03-31 07:49:41 51°14.225 2°45.683 8.3 323 6.8 102420 74
2009-03-31 07:49:46 51°14.214 2°45.661 9.7 282 6.8 102420 74
2009-03-31 07:49:51 51°14.203 2°45.638 9.7 323 6.8 102420 74
2009-03-31 07:49:56 51°14.192 2°45.615 8.8 -999 6.8 102420 74
2009-03-31 07:50:01 51°14.181 2°45.593 10 323 6.8 102420 74
2009-03-31 07:50:06 51°14.17 2°45.571 8.7 281 6.8 102420 74
2009-03-31 07:50:11 51°14.159 2°45.549 9.7 323 6.8 102420 73
2009-03-31 07:50:16 51°14.147 2°45.527 8.3 285 6.8 102420 73
2009-03-31 07:50:21 51°14.136 2°45.506 8.3 323 6.8 102420 73
2009-03-31 07:50:26 51°14.125 2°45.484 8.4 279 6.8 102420 73
2009-03-31 07:50:31 51°14.114 2°45.462 9.6 323 6.8 102420 73
2009-03-31 07:50:36 51°14.103 2°45.44 8.3 279 6.8 102420 73
2009-03-31 07:50:41 51°14.092 2°45.418 8.6 323 6.8 102420 73
2009-03-31 07:50:46 51°14.081 2°45.395 9.7 284 6.8 102420 73
2009-03-31 07:50:51 51°14.07 2°45.372 9.8 323 6.8 102420 73
2009-03-31 07:50:56 51°14.059 2°45.35 10 -999 6.8 102420 73
2009-03-31 07:51:01 51°14.049 2°45.327 8.6 322 6.8 102420 73
2009-03-31 07:51:06 51°14.038 2°45.304 10.1 285 6.8 102420 73
2009-03-31 07:51:11 51°14.028 2°45.281 10.2 323 6.9 102420 73
2009-03-31 07:51:16 51°14.017 2°45.258 9.8 284 6.9 102420 73
2009-03-31 07:51:21 51°14.007 2°45.235 9.5 322 6.9 102430 73
2009-03-31 07:51:26 51°13.996 2°45.212 9.9 282 6.9 102430 73
2009-03-31 07:51:31 51°13.986 2°45.189 9.4 324 6.9 102430 72
2009-03-31 07:51:36 51°13.976 2°45.165 9.2 280 6.9 102430 72
2009-03-31 07:51:41 51°13.965 2°45.142 8 323 6.9 102430 72
2009-03-31 07:51:46 51°13.954 2°45.119 8.2 281 6.9 102430 72
2009-03-31 07:51:51 51°13.944 2°45.096 9.2 323 6.9 102430 72
2009-03-31 07:51:56 51°13.934 2°45.073 9.5 278 6.9 102430 72
2009-03-31 07:52:01 51°13.923 2°45.05 9.7 324 6.9 102430 72
2009-03-31 07:52:06 51°13.913 2°45.027 8.2 286 6.9 102430 72
2009-03-31 07:52:11 51°13.902 2°45.004 9.1 324 6.9 102430 72
2009-03-31 07:52:16 51°13.892 2°44.981 9.1 282 6.9 102430 72
2009-03-31 07:52:21 51°13.882 2°44.957 8 324 6.9 102430 72
2009-03-31 07:52:26 51°13.872 2°44.934 8.3 284 6.9 102430 72
2009-03-31 07:52:31 51°13.862 2°44.91 9.7 323 7 102430 72
2009-03-31 07:52:36 51°13.852 2°44.887 8 281 7 102430 72
2009-03-31 07:52:41 51°13.842 2°44.863 7.8 325 6.9 102430 73
2009-03-31 07:52:46 51°13.832 2°44.839 8.1 283 6.9 102430 73
2009-03-31 07:52:51 51°13.822 2°44.816 9.9 323 7 102430 73
2009-03-31 07:52:56 51°13.812 2°44.792 8.2 283 7 102430 73
2009-03-31 07:53:01 51°13.802 2°44.769 9.7 324 7 102430 73
2009-03-31 07:53:06 51°13.793 2°44.745 9.7 281 7 102430 73
2009-03-31 07:53:11 51°13.783 2°44.721 8.1 324 7 102430 73
2009-03-31 07:53:16 51°13.773 2°44.697 8.2 281 7 102430 73
2009-03-31 07:53:21 51°13.764 2°44.673 8.1 322 7 102430 73
2009-03-31 07:53:26 51°13.754 2°44.65 8.2 284 7 102430 73
2009-03-31 07:53:31 51°13.745 2°44.625 8 324 7 102430 73
2009-03-31 07:53:36 51°13.736 2°44.601 8.7 287 7 102430 73
2009-03-31 07:53:41 51°13.727 2°44.576 9.1 323 7 102430 72
2009-03-31 07:53:46 51°13.718 2°44.552 7.7 280 7 102430 72
2009-03-31 07:53:51 51°13.709 2°44.527 7.9 322 7 102430 72
2009-03-31 07:53:56 51°13.702 2°44.501 7.8 286 7 102430 72
2009-03-31 07:54:01 51°13.693 2°44.476 7.8 323 7 102430 72
2009-03-31 07:54:06 51°13.685 2°44.451 8.9 282 7 102430 72
2009-03-31 07:54:11 51°13.677 2°44.426 7.5 324 7 102430 72
2009-03-31 07:54:16 51°13.67 2°44.4 8.9 284 7 102430 72
2009-03-31 07:54:21 51°13.662 2°44.375 9.4 324 7 102430 73
2009-03-31 07:54:26 51°13.654 2°44.349 7.9 279 7 102430 73
2009-03-31 07:54:31 51°13.646 2°44.324 8.9 322 7 102430 73
2009-03-31 07:54:36 51°13.638 2°44.298 7.5 280 7 102430 73
2009-03-31 07:54:41 51°13.631 2°44.273 7.7 322 7 102430 73
2009-03-31 07:54:46 51°13.623 2°44.248 8.8 280 7 102430 73
2009-03-31 07:54:51 51°13.615 2°44.222 8.7 323 7 102430 73
2009-03-31 07:54:56 51°13.608 2°44.197 8.9 286 7 102430 73
2009-03-31 07:55:01 51°13.6 2°44.172 7.9 323 7 102430 73
2009-03-31 07:55:06 51°13.593 2°44.146 8.9 282 7 102430 73
2009-03-31 07:55:11 51°13.585 2°44.121 8.1 322 7 102430 73
2009-03-31 07:55:16 51°13.578 2°44.096 9.1 281 7 102430 73
2009-03-31 07:55:21 51°13.57 2°44.07 9.1 323 7.1 102430 73
2009-03-31 07:55:26 51°13.563 2°44.045 7.8 282 7.1 102430 73
2009-03-31 07:55:31 51°13.555 2°44.019 9.1 322 7.1 102430 73
2009-03-31 07:55:36 51°13.548 2°43.994 9 286 7.1 102430 73
2009-03-31 07:55:41 51°13.541 2°43.968 7.5 324 7.1 102430 73
2009-03-31 07:55:46 51°13.533 2°43.943 7.9 280 7.1 102430 73
2009-03-31 07:55:51 51°13.526 2°43.917 8.9 324 7.1 102430 73
2009-03-31 07:55:56 51°13.519 2°43.892 8.7 282 7.1 102430 73
2009-03-31 07:56:01 51°13.512 2°43.866 8.8 323 7.1 102430 73
2009-03-31 07:56:06 51°13.505 2°43.841 7.8 282 7.1 102430 73
2009-03-31 07:56:11 51°13.498 2°43.815 7.3 323 7.1 102430 73
2009-03-31 07:56:16 51°13.49 2°43.79 8.4 283 7.1 102430 73
2009-03-31 07:56:21 51°13.483 2°43.764 7.8 324 7.1 102430 73
2009-03-31 07:56:26 51°13.476 2°43.739 8.6 287 7.1 102430 73
2009-03-31 07:56:31 51°13.469 2°43.713 7.5 323 7.1 102430 73
2009-03-31 07:56:36 51°13.462 2°43.688 7.6 286 7.1 102430 73
2009-03-31 07:56:41 51°13.454 2°43.662 7.8 322 7.1 102440 73
2009-03-31 07:56:45 51°13.449 2°43.642 7.8 281 7.1 102440 73
2009-03-31 07:56:51 51°13.44 2°43.611 9.5 324 7.1 102440 73
2009-03-31 07:56:56 51°13.433 2°43.586 9.4 278 7.1 102440 73
2009-03-31 07:57:01 51°13.425 2°43.56 8.9 323 7.1 102440 73
2009-03-31 07:57:06 51°13.418 2°43.535 8.8 282 7.1 102440 73
2009-03-31 07:57:11 51°13.411 2°43.509 8.9 323 7.1 102440 73
2009-03-31 07:57:16 51°13.403 2°43.484 7.5 281 7.1 102440 73
2009-03-31 07:57:21 51°13.396 2°43.458 8.7 322 7.1 102430 73
2009-03-31 07:57:25 51°13.39 2°43.438 8.6 283 7.1 102430 73
2009-03-31 07:57:31 51°13.382 2°43.407 9.4 322 7.1 102430 73
2009-03-31 07:57:36 51°13.374 2°43.382 7.7 285 7.1 102430 73
2009-03-31 07:57:41 51°13.367 2°43.356 8 322 7.1 102440 73
2009-03-31 07:57:46 51°13.36 2°43.331 7.6 280 7.1 102440 73
2009-03-31 07:57:51 51°13.353 2°43.305 8.2 323 7.1 102440 73
2009-03-31 07:57:56 51°13.345 2°43.28 8.7 282 7.1 102440 73
2009-03-31 07:58:01 51°13.338 2°43.254 7.4 323 7.1 102430 73
2009-03-31 07:58:06 51°13.33 2°43.229 8.5 281 7.1 102430 73
2009-03-31 07:58:11 51°13.323 2°43.203 8.7 323 7.1 102430 73
2009-03-31 07:58:16 51°13.316 2°43.178 8.8 280 7.1 102430 73
2009-03-31 07:58:21 51°13.309 2°43.152 9 322 7.1 102440 72
2009-03-31 07:58:26 51°13.302 2°43.127 8.7 280 7.1 102440 72
2009-03-31 07:58:31 51°13.294 2°43.101 8.5 323 7.1 102440 72
2009-03-31 07:58:36 51°13.287 2°43.076 8 279 7.1 102440 72
2009-03-31 07:58:41 51°13.28 2°43.05 8.8 323 7.1 102440 72
2009-03-31 07:58:46 51°13.273 2°43.025 7.5 287 7.1 102440 72
2009-03-31 07:58:51 51°13.265 2°42.999 7.4 323 7.1 102440 72
2009-03-31 07:58:56 51°13.258 2°42.974 8.9 286 7.1 102440 72
2009-03-31 07:59:01 51°13.25 2°42.949 7.5 323 7.1 102430 72
2009-03-31 07:59:06 51°13.242 2°42.924 7.8 282 7.1 102430 72
2009-03-31 07:59:11 51°13.234 2°42.899 7.6 322 7.1 102440 72
2009-03-31 07:59:16 51°13.226 2°42.874 9 279 7.1 102440 72
2009-03-31 07:59:21 51°13.218 2°42.849 8.8 323 7.1 102430 72
2009-03-31 07:59:26 51°13.21 2°42.824 8.8 283 7.1 102430 72
2009-03-31 07:59:31 51°13.202 2°42.799 8.7 323 7.1 102440 72
2009-03-31 07:59:36 51°13.194 2°42.774 8.8 286 7.1 102440 72
2009-03-31 07:59:41 51°13.186 2°42.749 9 323 7.1 102440 72
2009-03-31 07:59:46 51°13.178 2°42.724 7.9 281 7.1 102440 72
2009-03-31 07:59:51 51°13.17 2°42.699 7.9 323 7.1 102440 73
2009-03-31 07:59:56 51°13.161 2°42.675 8.6 279 7.1 102440 73
2009-03-31 08:00:01 51°13.152 2°42.651 9 323 7.1 102440 73
2009-03-31 08:00:06 51°13.143 2°42.627 7.5 280 7.1 102440 73
2009-03-31 08:00:11 51°13.133 2°42.603 9 324 7.1 102430 73
2009-03-31 08:00:16 51°13.124 2°42.58 9 283 7.1 102430 73
2009-03-31 08:00:21 51°13.115 2°42.556 7.9 324 7.1 102440 73
2009-03-31 08:00:26 51°13.105 2°42.533 8.1 285 7.1 102440 73
2009-03-31 08:00:31 51°13.096 2°42.509 7.9 323 7.1 102430 73
2009-03-31 08:00:36 51°13.086 2°42.486 9 285 7.1 102430 73
2009-03-31 08:00:41 51°13.076 2°42.462 9.1 324 7.1 102440 72
2009-03-31 08:00:45 51°13.069 2°42.444 9 283 7.1 102440 72
2009-03-31 08:00:51 51°13.057 2°42.415 7.5 323 7.1 102430 73
2009-03-31 08:00:56 51°13.047 2°42.392 8.9 280 7.1 102430 73
2009-03-31 08:01:01 51°13.038 2°42.369 9.4 325 7.1 102430 73
2009-03-31 08:01:06 51°13.028 2°42.345 9.5 284 7.1 102430 73
2009-03-31 08:01:11 51°13.018 2°42.322 9.2 324 7.1 102430 73
2009-03-31 08:01:16 51°13.009 2°42.299 7.7 281 7.1 102430 73
2009-03-31 08:01:21 51°12.999 2°42.275 7.8 324 7.1 102440 73
2009-03-31 08:01:25 51°12.991 2°42.257 9 287 7.1 102440 73
2009-03-31 08:01:31 51°12.979 2°42.229 9.4 324 7.1 102430 73
2009-03-31 08:01:36 51°12.97 2°42.205 8.1 286 7.1 102430 73
2009-03-31 08:01:41 51°12.96 2°42.182 8.2 324 7.1 102430 73
2009-03-31 08:01:46 51°12.95 2°42.159 8.6 280 7.1 102430 73
2009-03-31 08:01:51 51°12.941 2°42.135 8.3 325 7.1 102440 73
2009-03-31 08:01:56 51°12.931 2°42.112 9.3 281 7.1 102440 73
2009-03-31 08:02:01 51°12.921 2°42.089 7.8 324 7.1 102440 73
2009-03-31 08:02:06 51°12.911 2°42.066 9.2 278 7.1 102440 73
2009-03-31 08:02:11 51°12.901 2°42.043 8 325 7.1 102430 73
2009-03-31 08:02:16 51°12.892 2°42.019 9.4 283 7.1 102430 73
2009-03-31 08:02:21 51°12.882 2°41.996 7.9 325 7.1 102430 72
2009-03-31 08:02:26 51°12.872 2°41.972 9.1 279 7.1 102430 72
2009-03-31 08:02:31 51°12.862 2°41.949 8 324 7.1 102440 72
2009-03-31 08:02:36 51°12.853 2°41.926 9.7 284 7.1 102440 72
2009-03-31 08:02:41 51°12.844 2°41.902 9.4 323 7.1 102440 73
2009-03-31 08:02:46 51°12.834 2°41.879 9.2 280 7.1 102440 73
2009-03-31 08:02:51 51°12.825 2°41.854 9.2 322 7.1 102440 72
2009-03-31 08:02:56 51°12.816 2°41.83 9.5 285 7.1 102440 72
2009-03-31 08:03:01 51°12.808 2°41.806 9.5 325 7.1 102440 72
2009-03-31 08:03:06 51°12.799 2°41.782 9.5 279 7.1 102440 72
2009-03-31 08:03:11 51°12.79 2°41.757 8.2 324 7.1 102430 72
2009-03-31 08:03:16 51°12.782 2°41.733 9.3 286 7.1 102430 72
2009-03-31 08:03:21 51°12.772 2°41.709 9.5 324 7.1 102440 72
2009-03-31 08:03:26 51°12.764 2°41.685 9.4 286 7.1 102440 72
2009-03-31 08:03:31 51°12.755 2°41.661 7.6 325 7.1 102440 73
2009-03-31 08:03:36 51°12.746 2°41.638 8.2 282 7.1 102440 73
2009-03-31 08:03:41 51°12.736 2°41.614 9.2 324 7.1 102430 73
2009-03-31 08:03:46 51°12.728 2°41.59 9.4 282 7.1 102430 73
2009-03-31 08:03:51 51°12.719 2°41.565 7.9 323 7.1 102440 73
2009-03-31 08:03:56 51°12.71 2°41.541 7.7 280 7.1 102440 73
2009-03-31 08:04:01 51°12.702 2°41.517 9.2 323 7.1 102430 73
2009-03-31 08:04:06 51°12.693 2°41.493 7.8 283 7.1 102430 73
2009-03-31 08:04:11 51°12.685 2°41.468 9.3 323 7.1 102430 73
2009-03-31 08:04:16 51°12.677 2°41.443 8.1 286 7.1 102430 73
2009-03-31 08:04:21 51°12.668 2°41.418 9.4 324 7.1 102440 73
2009-03-31 08:04:26 51°12.66 2°41.393 9.3 287 7.1 102440 73
2009-03-31 08:04:31 51°12.652 2°41.369 8.2 322 7.1 102430 73
2009-03-31 08:04:36 51°12.643 2°41.345 8.1 284 7.1 102430 73
2009-03-31 08:04:41 51°12.635 2°41.32 8.2 322 7.1 102440 73
2009-03-31 08:04:46 51°12.626 2°41.296 7.9 286 7.1 102440 73
2009-03-31 08:04:51 51°12.617 2°41.272 9.6 323 7.1 102430 73
2009-03-31 08:04:56 51°12.609 2°41.247 9.5 283 7.1 102430 73
2009-03-31 08:05:01 51°12.6 2°41.222 9.5 322 7.1 102440 73
2009-03-31 08:05:06 51°12.592 2°41.198 8.3 280 7.1 102440 73
2009-03-31 08:05:11 51°12.583 2°41.173 10.1 322 7.1 102440 73
2009-03-31 08:05:16 51°12.575 2°41.148 8.3 278 7.1 102440 73
2009-03-31 08:05:21 51°12.567 2°41.123 8.2 323 7.1 102430 73
2009-03-31 08:05:26 51°12.558 2°41.099 8.1 286 7.1 102430 73
2009-03-31 08:05:31 51°12.55 2°41.074 10.1 324 7.1 102430 72
2009-03-31 08:05:36 51°12.542 2°41.049 9.8 280 7.1 102430 72
2009-03-31 08:05:41 51°12.533 2°41.024 8.3 324 7.1 102430 72
2009-03-31 08:05:46 51°12.525 2°40.999 9.5 281 7.1 102430 72
2009-03-31 08:05:51 51°12.517 2°40.975 9.6 322 7.1 102440 72
2009-03-31 08:05:56 51°12.508 2°40.95 8 -999 7.1 102440 72
2009-03-31 08:06:01 51°12.5 2°40.925 8.1 324 7.1 102440 72
2009-03-31 08:06:06 51°12.491 2°40.901 8.3 284 7.1 102440 72
2009-03-31 08:06:11 51°12.482 2°40.877 8.2 324 7.1 102430 72
2009-03-31 08:06:16 51°12.473 2°40.853 9.4 286 7.1 102430 72
2009-03-31 08:06:21 51°12.464 2°40.829 8.2 323 7.1 102430 72
2009-03-31 08:06:26 51°12.454 2°40.805 8.8 283 7.1 102430 72
2009-03-31 08:06:31 51°12.445 2°40.782 9 322 7.1 102440 72
2009-03-31 08:06:36 51°12.435 2°40.758 7.8 283 7.1 102440 72
2009-03-31 08:06:41 51°12.426 2°40.735 8.9 324 7.1 102430 71
2009-03-31 08:06:46 51°12.416 2°40.711 9.1 283 7.1 102430 71
2009-03-31 08:06:51 51°12.407 2°40.687 7.6 324 7.1 102430 72
2009-03-31 08:06:56 51°12.398 2°40.664 7.7 279 7.1 102430 72
2009-03-31 08:07:01 51°12.388 2°40.64 7.4 322 7.1 102440 72
2009-03-31 08:07:06 51°12.379 2°40.616 8.7 283 7.1 102440 72
2009-03-31 08:07:11 51°12.369 2°40.593 8.8 323 7.1 102440 72
2009-03-31 08:07:16 51°12.36 2°40.569 9.1 280 7.1 102440 72
2009-03-31 08:07:21 51°12.35 2°40.545 7.6 323 7.1 102430 72
2009-03-31 08:07:26 51°12.341 2°40.522 8.5 282 7.1 102430 72
2009-03-31 08:07:31 51°12.331 2°40.498 7.5 324 7.1 102440 72
2009-03-31 08:07:36 51°12.322 2°40.474 8.5 281 7.1 102440 72
2009-03-31 08:07:41 51°12.312 2°40.451 7.3 323 7.1 102440 72
2009-03-31 08:07:46 51°12.303 2°40.427 8.8 287 7.1 102440 72
2009-03-31 08:07:51 51°12.293 2°40.403 7.7 324 7.1 102430 72
2009-03-31 08:07:56 51°12.283 2°40.379 8.8 280 7.1 102430 72
2009-03-31 08:08:01 51°12.274 2°40.355 7.7 324 7.1 102440 73
2009-03-31 08:08:06 51°12.264 2°40.332 7.4 286 7.1 102440 73
2009-03-31 08:08:11 51°12.255 2°40.308 7.5 324 7.1 102440 73
2009-03-31 08:08:16 51°12.246 2°40.284 7.6 280 7.1 102440 73
2009-03-31 08:08:21 51°12.236 2°40.26 8.5 326 7.1 102440 73
2009-03-31 08:08:26 51°12.227 2°40.237 7.9 279 7.1 102440 73
2009-03-31 08:08:31 51°12.217 2°40.213 9 324 7.1 102440 73
2009-03-31 08:08:36 51°12.207 2°40.19 8.9 283 7.1 102440 73
2009-03-31 08:08:41 51°12.198 2°40.166 9.5 324 7.2 102440 73
2009-03-31 08:08:46 51°12.188 2°40.143 7.4 280 7.2 102440 73
2009-03-31 08:08:51 51°12.179 2°40.119 7.7 323 7.2 102440 73
2009-03-31 08:08:56 51°12.17 2°40.096 8.2 279 7.2 102440 73
2009-03-31 08:09:01 51°12.16 2°40.072 7.8 325 7.2 102430 73
2009-03-31 08:09:06 51°12.151 2°40.048 9 283 7.2 102430 73
2009-03-31 08:09:11 51°12.141 2°40.025 9.2 324 7.2 102440 73
2009-03-31 08:09:16 51°12.132 2°40.002 8.6 284 7.2 102440 73
2009-03-31 08:09:21 51°12.122 2°39.978 7.7 324 7.2 102430 73
2009-03-31 08:09:26 51°12.113 2°39.955 7.9 281 7.2 102430 73
2009-03-31 08:09:31 51°12.103 2°39.932 9.2 325 7.2 102440 73
2009-03-31 08:09:36 51°12.093 2°39.908 9.5 285 7.2 102440 73
2009-03-31 08:09:41 51°12.084 2°39.885 9.7 324 7.2 102430 73
2009-03-31 08:09:46 51°12.074 2°39.861 9.2 284 7.2 102430 73
2009-03-31 08:09:51 51°12.065 2°39.838 8.3 324 7.2 102440 73
2009-03-31 08:09:56 51°12.055 2°39.814 8.2 -999 7.2 102440 73
2009-03-31 08:10:01 51°12.046 2°39.791 8.2 323 7.2 102430 73
2009-03-31 08:10:06 51°12.036 2°39.768 9.5 281 7.2 102430 73
2009-03-31 08:10:11 51°12.027 2°39.744 9.3 323 7.1 102430 73
2009-03-31 08:10:16 51°12.018 2°39.721 7.9 280 7.1 102430 73
2009-03-31 08:10:21 51°12.008 2°39.698 8.1 324 7.2 102430 72
2009-03-31 08:10:26 51°11.998 2°39.674 8 283 7.2 102430 72
2009-03-31 08:10:31 51°11.989 2°39.65 9 324 7.1 102430 72
2009-03-31 08:10:36 51°11.98 2°39.627 9.4 279 7.1 102430 72
2009-03-31 08:10:41 51°11.97 2°39.604 9.4 323 7.1 102430 72
2009-03-31 08:10:46 51°11.961 2°39.58 9 280 7.1 102430 72
2009-03-31 08:10:51 51°11.951 2°39.557 8 323 7.1 102440 72
2009-03-31 08:10:56 51°11.942 2°39.533 9.6 285 7.1 102440 72
2009-03-31 08:11:01 51°11.932 2°39.51 9.4 323 7.1 102430 72
2009-03-31 08:11:06 51°11.923 2°39.486 8.1 279 7.1 102430 72
2009-03-31 08:11:11 51°11.914 2°39.463 9.3 323 7.1 102430 72
2009-03-31 08:11:16 51°11.904 2°39.439 9.5 283 7.1 102430 72
2009-03-31 08:11:21 51°11.895 2°39.416 9.6 324 7.1 102430 72
2009-03-31 08:11:26 51°11.885 2°39.393 7.9 281 7.1 102430 72
2009-03-31 08:11:31 51°11.876 2°39.369 7.9 323 7.1 102430 72
2009-03-31 08:11:36 51°11.867 2°39.345 8.8 284 7.1 102430 72
2009-03-31 08:11:41 51°11.857 2°39.322 8.2 323 7.2 102430 72
2009-03-31 08:11:46 51°11.847 2°39.299 9.4 284 7.2 102430 72
2009-03-31 08:11:51 51°11.838 2°39.276 8.7 325 7.2 102440 72
2009-03-31 08:11:56 51°11.829 2°39.252 9.6 280 7.2 102440 72
2009-03-31 08:12:01 51°11.819 2°39.229 9.1 324 7.2 102440 72
2009-03-31 08:12:06 51°11.81 2°39.206 9.4 281 7.2 102440 72
2009-03-31 08:12:11 51°11.8 2°39.183 8 324 7.2 102440 72
2009-03-31 08:12:16 51°11.791 2°39.159 8 282 7.2 102440 72
2009-03-31 08:12:21 51°11.781 2°39.136 8.2 324 7.2 102430 71
2009-03-31 08:12:26 51°11.772 2°39.113 9.3 283 7.2 102430 71
2009-03-31 08:12:31 51°11.762 2°39.089 7.8 324 7.1 102440 71
2009-03-31 08:12:36 51°11.753 2°39.066 7.8 282 7.1 102440 71
2009-03-31 08:12:41 51°11.743 2°39.042 8.1 323 7.1 102440 71
2009-03-31 08:12:46 51°11.734 2°39.019 7.9 278 7.1 102440 71
2009-03-31 08:12:51 51°11.724 2°38.996 7.5 324 7.1 102430 71
2009-03-31 08:12:56 51°11.715 2°38.973 8.1 286 7.1 102430 71
2009-03-31 08:13:01 51°11.705 2°38.949 8.2 324 7.1 102440 71
2009-03-31 08:13:06 51°11.695 2°38.926 9.4 283 7.1 102440 71
2009-03-31 08:13:11 51°11.686 2°38.903 7.8 324 7.2 102440 71
2009-03-31 08:13:16 51°11.676 2°38.879 7.8 283 7.2 102440 71
2009-03-31 08:13:21 51°11.667 2°38.855 7.7 325 7.2 102440 71
2009-03-31 08:13:26 51°11.658 2°38.832 8.9 287 7.2 102440 71
2009-03-31 08:13:31 51°11.648 2°38.808 9.5 323 7.2 102440 71
2009-03-31 08:13:36 51°11.639 2°38.784 7.8 279 7.2 102440 71
2009-03-31 08:13:41 51°11.629 2°38.76 8.1 324 7.2 102440 70
2009-03-31 08:13:46 51°11.62 2°38.737 7.8 278 7.2 102440 70
2009-03-31 08:13:51 51°11.61 2°38.714 7.8 324 7.1 102440 70
2009-03-31 08:13:56 51°11.601 2°38.69 9.2 281 7.1 102440 70
2009-03-31 08:14:01 51°11.591 2°38.666 7.6 325 7.1 102430 71
2009-03-31 08:14:06 51°11.582 2°38.643 8.1 278 7.1 102430 71
2009-03-31 08:14:11 51°11.573 2°38.619 9.2 324 7.2 102440 71
2009-03-31 08:14:16 51°11.563 2°38.596 8.6 278 7.2 102440 71
2009-03-31 08:14:21 51°11.553 2°38.572 7.5 324 7.2 102440 71
2009-03-31 08:14:26 51°11.544 2°38.549 7.9 280 7.2 102440 71
2009-03-31 08:14:31 51°11.535 2°38.525 8.9 323 7.2 102440 71
2009-03-31 08:14:36 51°11.525 2°38.502 7.6 286 7.2 102440 71
2009-03-31 08:14:41 51°11.516 2°38.479 8.7 324 7.2 102440 71
2009-03-31 08:14:46 51°11.506 2°38.456 9.2 280 7.2 102440 71
2009-03-31 08:14:51 51°11.496 2°38.433 7.6 323 7.2 102440 71
2009-03-31 08:14:56 51°11.487 2°38.409 7.6 286 7.2 102440 71
2009-03-31 08:15:01 51°11.477 2°38.386 7.5 323 7.2 102440 71
2009-03-31 08:15:06 51°11.467 2°38.363 7.4 286 7.2 102440 71
2009-03-31 08:15:11 51°11.458 2°38.34 7.6 323 7.2 102440 71
2009-03-31 08:15:16 51°11.448 2°38.316 7.3 279 7.2 102440 71
2009-03-31 08:15:21 51°11.439 2°38.292 8.6 324 7.2 102440 71
2009-03-31 08:15:26 51°11.43 2°38.269 8.7 279 7.2 102440 71
2009-03-31 08:15:31 51°11.42 2°38.246 8.6 323 7.2 102440 71
2009-03-31 08:15:36 51°11.411 2°38.222 8.5 286 7.2 102440 71
2009-03-31 08:15:41 51°11.401 2°38.199 8.7 324 7.2 102440 71
2009-03-31 08:15:46 51°11.391 2°38.175 7.3 284 7.2 102440 71
2009-03-31 08:15:51 51°11.382 2°38.152 7.6 323 7.2 102440 71
2009-03-31 08:15:56 51°11.373 2°38.128 7.4 -999 7.2 102440 71
2009-03-31 08:16:01 51°11.363 2°38.105 8.4 323 7.2 102440 72
2009-03-31 08:16:06 51°11.354 2°38.082 7.4 287 7.2 102440 72
2009-03-31 08:16:11 51°11.344 2°38.058 7.1 323 7.2 102440 72
2009-03-31 08:16:16 51°11.335 2°38.035 8.6 287 7.2 102440 72
2009-03-31 08:16:21 51°11.325 2°38.011 8.7 324 7.3 102440 72
2009-03-31 08:16:26 51°11.316 2°37.988 7.4 280 7.3 102440 72
2009-03-31 08:16:31 51°11.306 2°37.964 9 323 7.2 102440 72
2009-03-31 08:16:36 51°11.297 2°37.941 8.9 280 7.2 102440 72
2009-03-31 08:16:41 51°11.287 2°37.917 7.9 322 7.3 102440 72
2009-03-31 08:16:46 51°11.278 2°37.893 9 284 7.3 102440 72
2009-03-31 08:16:51 51°11.268 2°37.87 9 323 7.3 102440 72
2009-03-31 08:16:56 51°11.259 2°37.847 8.2 287 7.3 102440 72
2009-03-31 08:17:01 51°11.249 2°37.823 7.9 323 7.3 102440 72
2009-03-31 08:17:06 51°11.239 2°37.8 8.2 280 7.3 102440 72
2009-03-31 08:17:11 51°11.23 2°37.777 8 323 7.3 102440 72
2009-03-31 08:17:16 51°11.22 2°37.754 8.1 279 7.3 102440 72
2009-03-31 08:17:21 51°11.21 2°37.73 9.4 322 7.3 102440 72
2009-03-31 08:17:26 51°11.201 2°37.707 7.9 279 7.3 102440 72
2009-03-31 08:17:31 51°11.191 2°37.683 7.9 323 7.3 102440 71
2009-03-31 08:17:36 51°11.182 2°37.66 8.9 282 7.3 102440 71
2009-03-31 08:17:41 51°11.172 2°37.636 8.9 323 7.3 102440 71
2009-03-31 08:17:45 51°11.165 2°37.617 8.9 281 7.3 102440 71
2009-03-31 08:17:51 51°11.154 2°37.589 9.7 322 7.3 102440 71
2009-03-31 08:17:56 51°11.144 2°37.566 9.5 281 7.3 102440 71
2009-03-31 08:18:01 51°11.135 2°37.542 9.9 323 7.3 102440 71
2009-03-31 08:18:06 51°11.125 2°37.518 8.4 280 7.3 102440 71
2009-03-31 08:18:11 51°11.115 2°37.495 8 322 7.3 102440 71
2009-03-31 08:18:16 51°11.106 2°37.471 8 281 7.3 102440 71
2009-03-31 08:18:21 51°11.097 2°37.447 8 323 7.3 102430 70
2009-03-31 08:18:25 51°11.089 2°37.428 8.4 280 7.3 102430 70
2009-03-31 08:18:31 51°11.077 2°37.4 9.6 324 7.3 102430 70
2009-03-31 08:18:36 51°11.068 2°37.376 8.3 280 7.3 102430 70
2009-03-31 08:18:41 51°11.059 2°37.352 9.2 323 7.3 102440 70
2009-03-31 08:18:46 51°11.049 2°37.328 9.2 286 7.3 102440 70
2009-03-31 08:18:51 51°11.04 2°37.305 9.3 322 7.3 102440 70
2009-03-31 08:18:56 51°11.03 2°37.281 7.9 281 7.3 102440 70
2009-03-31 08:19:01 51°11.021 2°37.257 8 323 7.3 102430 69
2009-03-31 08:19:06 51°11.011 2°37.234 7.8 279 7.3 102430 69
2009-03-31 08:19:11 51°11.002 2°37.21 7.8 323 7.3 102430 69
2009-03-31 08:19:16 51°10.992 2°37.186 8.9 281 7.3 102430 69
2009-03-31 08:19:21 51°10.983 2°37.163 7.7 323 7.3 102440 69
2009-03-31 08:19:26 51°10.973 2°37.139 9.2 286 7.3 102440 69
2009-03-31 08:19:31 51°10.964 2°37.115 9.2 324 7.4 102440 69
2009-03-31 08:19:36 51°10.954 2°37.092 8 281 7.4 102440 69
2009-03-31 08:19:41 51°10.944 2°37.068 9.5 324 7.4 102440 70
2009-03-31 08:19:46 51°10.935 2°37.044 8.3 286 7.4 102440 70
2009-03-31 08:19:51 51°10.926 2°37.021 9 323 7.4 102440 70
2009-03-31 08:19:56 51°10.916 2°36.997 9.4 278 7.4 102440 70
2009-03-31 08:20:01 51°10.907 2°36.973 8.3 324 7.4 102440 70
2009-03-31 08:20:06 51°10.897 2°36.95 8.1 286 7.4 102440 70
2009-03-31 08:20:11 51°10.887 2°36.926 8.1 324 7.4 102440 69
2009-03-31 08:20:16 51°10.878 2°36.903 9.3 283 7.4 102440 69
2009-03-31 08:20:21 51°10.868 2°36.879 8 324 7.4 102440 69
2009-03-31 08:20:26 51°10.858 2°36.857 9.6 283 7.4 102440 69
2009-03-31 08:20:31 51°10.848 2°36.834 8.4 325 7.4 102430 69
2009-03-31 08:20:36 51°10.837 2°36.812 8.5 280 7.4 102430 69
2009-03-31 08:20:41 51°10.826 2°36.79 9.8 324 7.4 102440 69
2009-03-31 08:20:46 51°10.815 2°36.768 8.3 279 7.4 102440 69
2009-03-31 08:20:51 51°10.804 2°36.746 9.4 326 7.4 102440 69
2009-03-31 08:20:56 51°10.793 2°36.725 9.7 280 7.4 102440 69
2009-03-31 08:21:01 51°10.782 2°36.703 8 325 7.4 102440 69
2009-03-31 08:21:06 51°10.771 2°36.681 9.6 286 7.4 102440 69
2009-03-31 08:21:11 51°10.759 2°36.66 8.3 324 7.4 102440 69
2009-03-31 08:21:16 51°10.748 2°36.639 8.1 281 7.4 102440 69
2009-03-31 08:21:21 51°10.736 2°36.619 8.5 327 7.4 102440 69
2009-03-31 08:21:26 51°10.722 2°36.601 8.5 279 7.4 102440 69
2009-03-31 08:21:31 51°10.71 2°36.583 9.8 328 7.4 102440 69
2009-03-31 08:21:36 51°10.696 2°36.566 8.5 281 7.4 102440 69
2009-03-31 08:21:41 51°10.683 2°36.549 8.6 327 7.5 102440 69
2009-03-31 08:21:46 51°10.668 2°36.534 9.6 285 7.5 102440 69
2009-03-31 08:21:51 51°10.654 2°36.518 9.9 328 7.4 102440 69
2009-03-31 08:21:56 51°10.639 2°36.506 9.4 281 7.4 102440 69
2009-03-31 08:22:01 51°10.624 2°36.493 9.6 332 7.4 102440 68
2009-03-31 08:22:06 51°10.609 2°36.481 9.7 284 7.4 102440 68
2009-03-31 08:22:11 51°10.593 2°36.471 8.5 331 7.4 102440 68
2009-03-31 08:22:16 51°10.578 2°36.462 9.7 283 7.4 102440 68
2009-03-31 08:22:21 51°10.562 2°36.454 8.6 333 7.4 102440 68
2009-03-31 08:22:26 51°10.546 2°36.445 9.6 282 7.4 102440 68
2009-03-31 08:22:31 51°10.529 2°36.44 9.9 333 7.4 102450 68
2009-03-31 08:22:36 51°10.513 2°36.434 8.6 280 7.4 102450 68
2009-03-31 08:22:41 51°10.497 2°36.431 8.4 333 7.4 102440 68
2009-03-31 08:22:46 51°10.481 2°36.427 8.8 286 7.4 102440 68
2009-03-31 08:22:51 51°10.464 2°36.425 8.5 334 7.3 102450 68
2009-03-31 08:22:56 51°10.448 2°36.424 8.2 280 7.3 102450 68
2009-03-31 08:23:01 51°10.432 2°36.422 9.7 333 7.4 102440 68
2009-03-31 08:23:06 51°10.416 2°36.422 8.5 279 7.4 102440 68
2009-03-31 08:23:11 51°10.399 2°36.422 9.3 334 7.3 102440 68
2009-03-31 08:23:16 51°10.383 2°36.422 9.5 284 7.3 102440 68
2009-03-31 08:23:21 51°10.366 2°36.423 4.4 335 7.3 102440 68
2009-03-31 08:23:26 51°10.35 2°36.423 9.7 284 7.3 102440 68
2009-03-31 08:23:31 51°10.333 2°36.424 9.5 336 7.3 102440 67
2009-03-31 08:23:36 51°10.316 2°36.424 9.7 282 7.3 102440 67
2009-03-31 08:23:41 51°10.299 2°36.424 9.5 335 7.3 102450 67
2009-03-31 08:23:45 51°10.285 2°36.424 8.5 282 7.3 102450 67
2009-03-31 08:23:51 51°10.265 2°36.42 8.7 334 7.3 102440 68
2009-03-31 08:23:56 51°10.248 2°36.419 9.7 284 7.3 102440 68
2009-03-31 08:24:01 51°10.23 2°36.414 9.8 334 7.3 102450 68
2009-03-31 08:24:06 51°10.214 2°36.411 9.8 283 7.3 102450 68
2009-03-31 08:24:11 51°10.197 2°36.407 9.7 333 7.3 102440 68
2009-03-31 08:24:16 51°10.18 2°36.403 8.7 281 7.3 102440 68
2009-03-31 08:24:21 51°10.163 2°36.398 8.6 334 7.3 102440 68
2009-03-31 08:24:25 51°10.149 2°36.395 8.4 286 7.3 102440 68
2009-03-31 08:24:31 51°10.129 2°36.389 9.5 333 7.3 102440 67
2009-03-31 08:24:36 51°10.112 2°36.384 8.6 286 7.3 102440 67
2009-03-31 08:24:41 51°10.095 2°36.378 8.6 333 7.3 102440 68
2009-03-31 08:24:46 51°10.078 2°36.373 8.4 280 7.3 102440 68
2009-03-31 08:24:51 51°10.062 2°36.367 8.6 333 7.3 102450 68
2009-03-31 08:24:56 51°10.045 2°36.362 8.6 278 7.3 102450 68
2009-03-31 08:25:01 51°10.028 2°36.356 10 333 7.4 102450 68
2009-03-31 08:25:06 51°10.011 2°36.352 9.8 279 7.4 102450 68
2009-03-31 08:25:11 51°9.994 2°36.346 8.3 335 7.3 102450 68
2009-03-31 08:25:16 51°9.977 2°36.342 9.3 279 7.3 102450 68
2009-03-31 08:25:21 51°9.96 2°36.337 8.3 334 7.3 102450 68
2009-03-31 08:25:26 51°9.944 2°36.332 9.2 286 7.3 102450 68
2009-03-31 08:25:31 51°9.927 2°36.328 9.3 332 7.3 102450 68
2009-03-31 08:25:36 51°9.91 2°36.323 9.6 283 7.3 102450 68
2009-03-31 08:25:41 51°9.893 2°36.318 9.5 333 7.3 102450 68
2009-03-31 08:25:46 51°9.876 2°36.313 9.4 279 7.3 102450 68
2009-03-31 08:25:51 51°9.859 2°36.308 9.7 335 7.3 102450 68
2009-03-31 08:25:56 51°9.842 2°36.303 8.7 282 7.3 102450 68
2009-03-31 08:26:01 51°9.825 2°36.299 9.4 334 7.3 102450 68
2009-03-31 08:26:06 51°9.808 2°36.295 8.3 279 7.3 102450 68
2009-03-31 08:26:11 51°9.791 2°36.291 9.6 333 7.3 102450 69
2009-03-31 08:26:16 51°9.774 2°36.287 9.6 283 7.3 102450 69
2009-03-31 08:26:21 51°9.757 2°36.282 8.3 334 7.3 102450 69
2009-03-31 08:26:26 51°9.74 2°36.279 9.2 283 7.3 102450 69
2009-03-31 08:26:31 51°9.723 2°36.276 9.4 334 7.3 102440 69
2009-03-31 08:26:36 51°9.706 2°36.273 9.8 283 7.3 102440 69
2009-03-31 08:26:41 51°9.689 2°36.27 8.6 334 7.3 102450 68
2009-03-31 08:26:46 51°9.672 2°36.27 8.4 281 7.3 102450 68
2009-03-31 08:26:51 51°9.657 2°36.268 7.7 335 7.3 102450 68
2009-03-31 08:26:56 51°9.641 2°36.267 8.4 282 7.3 102450 68
2009-03-31 08:27:01 51°9.627 2°36.267 7.3 337 7.3 102450 68
2009-03-31 08:27:06 51°9.613 2°36.267 8 282 7.3 102450 68
2009-03-31 08:27:11 51°9.599 2°36.267 6.9 338 7.3 102450 69
2009-03-31 08:27:16 51°9.586 2°36.267 7.2 282 7.3 102450 69
2009-03-31 08:27:21 51°9.574 2°36.267 7.3 336 7.3 102450 69
2009-03-31 08:27:26 51°9.563 2°36.267 6.4 280 7.3 102450 69
2009-03-31 08:27:31 51°9.552 2°36.267 6.3 337 7.3 102460 69
2009-03-31 08:27:36 51°9.542 2°36.267 5.7 285 7.3 102460 69
2009-03-31 08:27:41 51°9.532 2°36.268 5.5 338 7.3 102460 69
2009-03-31 08:27:46 51°9.522 2°36.268 5.3 282 7.3 102460 69
2009-03-31 08:27:51 51°9.513 2°36.268 5.3 339 7.3 102460 69
2009-03-31 08:27:56 51°9.504 2°36.268 5.7 282 7.3 102460 69
2009-03-31 08:28:01 51°9.495 2°36.268 5.1 339 7.3 102460 69
2009-03-31 08:28:06 51°9.486 2°36.268 5.1 279 7.3 102460 69
2009-03-31 08:28:11 51°9.477 2°36.267 5.1 339 7.4 102460 69
2009-03-31 08:28:16 51°9.469 2°36.267 5.7 281 7.4 102460 69
2009-03-31 08:28:21 51°9.461 2°36.267 5.8 339 7.4 102460 69
2009-03-31 08:28:25 51°9.454 2°36.267 5.2 283 7.4 102460 69
2009-03-31 08:28:31 51°9.444 2°36.269 5.6 344 7.4 102460 69
2009-03-31 08:28:36 51°9.436 2°36.27 5.8 344 7.4 102460 69
2009-03-31 08:28:41 51°9.428 2°36.273 5.6 346 7.4 102460 69
2009-03-31 08:28:46 51°9.42 2°36.276 5.3 280 7.4 102460 69
2009-03-31 08:28:51 51°9.412 2°36.28 5.5 348 7.4 102460 69
2009-03-31 08:28:56 51°9.403 2°36.285 5.3 346 7.4 102460 69
2009-03-31 08:29:01 51°9.395 2°36.29 5.6 346 7.4 102460 68
2009-03-31 08:29:05 51°9.389 2°36.295 5.3 283 7.4 102460 68
2009-03-31 08:29:11 51°9.379 2°36.303 6.1 348 7.4 102460 68
2009-03-31 08:29:16 51°9.372 2°36.311 5.5 348 7.4 102460 68
2009-03-31 08:29:21 51°9.364 2°36.319 5.6 349 7.4 102460 68
2009-03-31 08:29:26 51°9.357 2°36.328 5.9 349 7.4 102460 68
2009-03-31 08:29:31 51°9.349 2°36.337 5.4 348 7.4 102460 69
2009-03-31 08:29:36 51°9.342 2°36.347 5.7 349 7.4 102460 69
2009-03-31 08:29:41 51°9.335 2°36.357 5.8 350 7.4 102460 68
2009-03-31 08:29:45 51°9.33 2°36.365 5.8 281 7.4 102460 68
2009-03-31 08:29:51 51°9.322 2°36.378 6.2 349 7.3 102460 68
2009-03-31 08:29:56 51°9.315 2°36.389 5.6 349 7.3 102460 68
2009-03-31 08:30:01 51°9.309 2°36.401 5.9 352 7.3 102460 69
2009-03-31 08:30:06 51°9.303 2°36.412 5.9 352 7.3 102460 69
2009-03-31 08:30:11 51°9.298 2°36.425 5.2 352 7.3 102460 69
2009-03-31 08:30:16 51°9.293 2°36.437 5.2 351 7.3 102460 69
2009-03-31 08:30:21 51°9.288 2°36.45 5.1 351 7.3 102460 68
2009-03-31 08:30:26 51°9.284 2°36.463 5.1 351 7.3 102460 68
2009-03-31 08:30:31 51°9.279 2°36.476 4.5 351 7.3 102460 68
2009-03-31 08:30:36 51°9.275 2°36.489 4.7 351 7.3 102460 68
2009-03-31 08:30:41 51°9.271 2°36.502 4.9 351 7.3 102460 68
2009-03-31 08:30:46 51°9.268 2°36.515 4.6 352 7.3 102460 68
2009-03-31 08:30:51 51°9.264 2°36.528 4.7 352 7.3 102460 68
2009-03-31 08:30:56 51°9.262 2°36.54 4.5 355 7.3 102460 68
2009-03-31 08:31:01 51°9.259 2°36.552 4 354 7.3 102470 69
2009-03-31 08:31:06 51°9.257 2°36.565 4.2 355 7.3 102470 69
2009-03-31 08:31:11 51°9.255 2°36.577 3.7 353 7.3 102460 69
2009-03-31 08:31:16 51°9.253 2°36.589 4.1 357 7.3 102460 69
2009-03-31 08:31:21 51°9.251 2°36.601 4 357 7.3 102470 70
2009-03-31 08:31:26 51°9.25 2°36.614 3.9 356 7.3 102470 70
2009-03-31 08:31:31 51°9.248 2°36.626 3.7 355 7.3 102460 69
2009-03-31 08:31:36 51°9.247 2°36.638 3.5 356 7.3 102460 69
2009-03-31 08:31:41 51°9.245 2°36.65 3.5 355 7.3 102470 69
2009-03-31 08:31:46 51°9.244 2°36.661 3.6 355 7.3 102470 69
2009-03-31 08:31:51 51°9.243 2°36.672 3.5 358 7.3 102470 69
2009-03-31 08:31:56 51°9.242 2°36.683 3.4 357 7.3 102470 69
2009-03-31 08:32:01 51°9.241 2°36.694 3.4 356 7.3 102470 69
2009-03-31 08:32:06 51°9.24 2°36.704 3.2 356 7.3 102470 69
2009-03-31 08:32:11 51°9.239 2°36.715 3 358 7.3 102470 70
2009-03-31 08:32:16 51°9.239 2°36.725 3 356 7.3 102470 70
2009-03-31 08:32:21 51°9.238 2°36.735 2.9 358 7.3 102470 70
2009-03-31 08:32:26 51°9.237 2°36.744 1.9 357 7.3 102470 70